Weather History for KMCK - August, 2013

Change the Weather History Date:

Wednesday, August 7, 2013

  Actual Average Record
Temperature  
Mean Temperature 73 °F 75 °F  
Max Temperature 83 °F 89 °F 106 °F (1970)
Min Temperature 62 °F 62 °F 51 °F (1989)
Cooling Degree Days 7    
Growing Degree Days 22 (Base 50)    
Moisture  
Dew Point 61 °F    
Average Humidity 72    
Maximum Humidity 90    
Minimum Humidity 39    
Precipitation  
Precipitation 0.38 in 0.12 in 1.54 in (2008)
Month to date precipitation 0.38 0.86  
Year to date precipitation 8.06 15.43  
Sea Level Pressure  
Sea Level Pressure 29.97 in    
Wind  
Wind Speed 11 mph (ENE)    
Max Wind Speed 36 mph    
Max Gust Speed 60 mph    
Visibility 8 miles    
Events Rain , Thunderstorm    
T = Trace of Precipitation, MM = Missing Value Source: NWS Daily Summary

Daily Weather History Graph

Daily Weather History Graph

Search for Another Location

Airport or City:

Trip Planner

Search our weather history database for the weather conditions in past years. The results will help you decide how hot, cold, wet, or windy it might be!

Date:

Astronomy

Aug. 07, 2013 Rise Set
Actual Time 6:46 AM CDT 8:49 PM CDT
Civil Twilight 6:16 AM CDT 9:19 PM CDT
Nautical Twilight 5:39 AM CDT 9:55 PM CDT
Astronomical Twilight 5:00 AM CDT 10:34 PM CDT
Moon 7:36 AM CDT (8/7) 8:57 PM CDT (8/7)
Length of Visible Light 15h 02m
Length of Day
14h 03m
New Moon, 1% of the Moon is Illuminated
Aug 7
New Moon
Aug 14
First Quarter
Aug 20
Full
Aug 28
Last Quarter
Sep 5
New

Hourly Weather History & Observations

Time (CDT) Temp. Heat Index Dew Point Humidity Pressure Visibility Wind Dir Wind Speed Gust Speed Precip Events Conditions
12:53 AM 75.9 °F - 69.1 °F 79% 29.90 in 10.0 mi ENE 5.8 mph - N/A   Mostly Cloudy
1:51 AM 75.2 °F - 69.8 °F 83% 29.98 in 10.0 mi NE 6.9 mph - N/A Thunderstorm Scattered Clouds
1:53 AM 75.9 °F - 70.0 °F 82% 29.89 in 10.0 mi NE 8.1 mph - N/A Thunderstorm Scattered Clouds
2:26 AM 64.4 °F - 57.2 °F 77% 30.01 in 2.5 mi WNW 35.7 mph 52.9 mph 0.05 in Rain , Thunderstorm Thunderstorms and Rain
2:41 AM 62.6 °F - 57.2 °F 82% 30.05 in 1.2 mi NW 31.1 mph 59.8 mph 0.16 in Rain , Thunderstorm Heavy Thunderstorms and Rain
2:50 AM 64.4 °F - 59.0 °F 83% 30.07 in 3.0 mi WNW 11.5 mph 33.4 mph 0.21 in Rain , Thunderstorm Heavy Thunderstorms and Rain
2:53 AM 64.0 °F - 59.0 °F 84% 30.00 in 4.0 mi WNW 11.5 mph 32.2 mph 0.21 in Rain , Thunderstorm Light Thunderstorms and Rain
3:30 AM 64.4 °F - 57.2 °F 77% 30.03 in 4.0 mi East 12.7 mph - 0.08 in Rain Heavy Rain
3:42 AM 64.4 °F - 60.8 °F 88% 30.01 in 4.0 mi East 13.8 mph - 0.12 in Rain , Thunderstorm Rain
3:53 AM 64.0 °F - 59.0 °F 84% 29.89 in 5.0 mi ESE 21.9 mph - 0.15 in Rain Rain
4:53 AM 66.9 °F - 57.9 °F 73% 29.90 in 10.0 mi East 8.1 mph - 0.02 in   Clear
5:53 AM 63.0 °F - 59.0 °F 87% 29.91 in 10.0 mi North 8.1 mph - N/A   Clear
6:53 AM 62.1 °F - 59.0 °F 90% 29.92 in 10.0 mi North 6.9 mph - N/A   Clear
7:53 AM 64.0 °F - 60.1 °F 87% 29.94 in 10.0 mi NNE 10.4 mph - N/A   Scattered Clouds
8:53 AM 71.1 °F - 61.0 °F 70% 29.96 in 10.0 mi ENE 13.8 mph - N/A   Scattered Clouds
9:53 AM 72.0 °F - 62.1 °F 71% 29.99 in 10.0 mi East 6.9 mph - N/A   Partly Cloudy
10:53 AM 75.0 °F - 62.1 °F 64% 29.97 in 10.0 mi ENE 9.2 mph - N/A   Clear
11:53 AM 79.0 °F - 64.0 °F 60% 29.97 in 10.0 mi ENE 10.4 mph - N/A   Clear
12:53 PM 80.1 °F 80.4 °F 57.0 °F 45% 29.97 in 10.0 mi ENE 10.4 mph - N/A   Clear
1:53 PM 82.0 °F 82.0 °F 57.9 °F 44% 29.99 in 10.0 mi East 9.2 mph - N/A   Clear
2:53 PM 82.9 °F 82.1 °F 55.9 °F 39% 29.99 in 10.0 mi SSE 9.2 mph - N/A   Clear
3:53 PM 82.0 °F 82.0 °F 57.9 °F 44% 30.00 in 10.0 mi ESE 8.1 mph - N/A   Partly Cloudy
4:53 PM 81.0 °F 81.3 °F 59.0 °F 47% 29.98 in 10.0 mi South 6.9 mph - N/A   Partly Cloudy
5:53 PM 75.0 °F - 63.0 °F 66% 29.99 in 10.0 mi WNW 9.2 mph - N/A   Partly Cloudy
6:53 PM 73.9 °F - 63.0 °F 68% 29.97 in 10.0 mi WSW 5.8 mph - N/A   Mostly Cloudy
7:53 PM 72.0 °F - 63.0 °F 73% 29.96 in 10.0 mi Calm Calm - N/A   Overcast
8:53 PM 70.0 °F - 64.0 °F 81% 29.96 in 10.0 mi Calm Calm - N/A   Clear
9:53 PM 69.1 °F - 64.0 °F 84% 29.96 in 10.0 mi Calm Calm - N/A   Partly Cloudy
10:53 PM 70.0 °F - 64.0 °F 81% 29.96 in 10.0 mi Calm Calm - N/A   Mostly Cloudy
11:53 PM 70.0 °F - 63.0 °F 78% 29.97 in 10.0 mi South 3.5 mph - N/A   Mostly Cloudy